Location: Caracas
(10.5033°N, 66.8422°W)
Time: 00:14:24
(UTC-04:00)

Hubble Space Telescope - Pass Details

Date: 12 November 2017
Orbit: 537 x 541 km, 28.5° (Epoch: 20 November)

Event Time Altitude Azimuth Distance (km) Brightness Sun altitude
Exits shadow 04:47:17 30° 193° (SSW) 968 2.0 -23.1°
Maximum altitude 04:48:37 40° 150° (SSE) 794 1.9 -22.8°
Drops below altitude 10° 04:52:29 10° 80° (E) 1,777 4.3 -21.9°
Sets 04:54:50 0° 72° (ENE) 2,667 5.3 -21.3°
